FW9939 Weather Reports


Display with metric or nautical units.
time (UTC)temp
F
wind
direction
speed
MPH
gust
MPH
rain 1hr
in
rain 24hr
in
rain mn
in
humidity
%
barometer
mb
20260503023053 63 0 0.0 0.0 0.00 0.00 0.00 38 1015.0
20260503021546 65 0 0.0 0.0 0.00 0.00 0.00 36 1014.9
20260503020049 66 0 0.0 0.0 0.00 0.00 0.00 35 1015.0
20260503014546 66 0 0.0 0.0 0.00 0.00 0.00 36 1014.9
20260503013046 66 0 0.0 0.0 0.00 0.00 0.00 36 1014.9
20260503011546 66 0 0.0 0.0 0.00 0.00 0.00 36 1014.8
20260503010042 66 0 0.0 0.0 0.00 0.00 0.00 35 1015.2
20260503004547 66 0 0.0 1.0 0.00 0.00 0.00 36 1015.2
20260503003048 65 303 0.0 4.0 0.00 0.00 0.00 37 1015.3
20260503001603 65 283 0.0 4.0 0.00 0.00 0.00 38 1015.5
20260503000108 65 277 0.0 1.0 0.00 0.00 0.00 37 1015.6
20260502234552 66 277 1.0 9.0 0.00 0.00 0.00 37 1015.7
20260502233101 66 0 0.0 1.0 0.00 0.00 0.00 37 1015.9
20260502231600 65 0 0.0 2.0 0.00 0.00 0.00 37 1016.0
20260502230044 66 98 1.0 6.0 0.00 0.00 0.00 36 1016.2
20260502224544 67 127 0.0 5.0 0.00 0.00 0.00 37 1016.4
20260502223048 66 51 2.0 6.0 0.00 0.00 0.00 37 1016.6
20260502221558 67 107 3.0 8.0 0.00 0.00 0.00 36 1016.7
20260502220046 65 90 1.0 4.0 0.00 0.00 0.00 38 1017.0
20260502214545 65 0 0.0 3.0 0.00 0.00 0.00 38 1017.0
20260502213053 65 44 2.0 5.0 0.00 0.00 0.00 38 1017.3
20260502211548 65 40 2.0 5.0 0.00 0.00 0.00 38 1017.4
20260502210046 66 0 1.0 7.0 0.00 0.00 0.00 39 1017.6
20260502204552 67 123 4.0 8.0 0.00 0.00 0.00 37 1017.9
20260502203054 66 0 0.0 3.0 0.00 0.00 0.00 38 1018.0
20260502201550 65 107 4.0 11.0 0.00 0.00 0.00 39 1018.1
20260502200049 63 0 1.0 8.0 0.00 0.00 0.00 42 1018.5
20260502194546 62 121 3.0 9.0 0.00 0.00 0.00 42 1018.7
20260502193046 64 94 2.0 4.0 0.00 0.00 0.00 41 1018.8
20260502191549 64 111 2.0 9.0 0.00 0.00 0.00 40 1019.1
20260502190051 62 113 1.0 7.0 0.00 0.00 0.00 43 1019.0
20260502184552 62 94 3.0 7.0 0.00 0.00 0.00 43 1019.1
20260502183047 62 0 1.0 7.0 0.00 0.00 0.00 42 1019.1
20260502181549 62 0 1.0 9.0 0.00 0.00 0.00 42 1019.1
20260502163054 63 109 2.0 9.0 0.00 0.00 0.00 42 1019.3
20260502161553 62 90 2.0 9.0 0.00 0.00 0.00 42 1019.3
20260502151550 59 110 0.0 8.0 0.00 0.00 0.00 45 1019.1
20260502123050 47 71 3.0 9.0 0.00 0.00 0.00 58 1018.0
20260502121553 47 111 2.0 8.0 0.00 0.00 0.00 57 1017.8
20260502114544 48 105 2.0 8.0 0.00 0.00 0.00 56 1017.5
20260502113046 48 116 3.0 9.0 0.00 0.00 0.00 55 1017.4
20260502111547 48 107 2.0 7.0 0.00 0.00 0.00 54 1017.1
20260502110047 48 0 2.0 8.0 0.00 0.00 0.00 53 1016.7
20260502104551 49 0 1.0 4.0 0.00 0.00 0.00 51 1016.5
20260502103046 49 112 1.0 7.0 0.00 0.00 0.00 50 1016.1
20260502101548 50 0 2.0 6.0 0.00 0.00 0.00 49 1016.0
20260502070046 49 0 0.0 3.0 0.00 0.00 0.00 42 1014.9
20260502064548 50 110 1.0 3.0 0.00 0.00 0.00 41 1014.8
20260502063043 51 98 2.0 6.0 0.00 0.00 0.00 40 1014.7
20260502061548 51 0 0.0 4.0 0.00 0.00 0.00 39 1014.7
20260502060046 51 0 1.0 4.0 0.00 0.00 0.00 39 1014.8
20260502054548 51 98 0.0 3.0 0.00 0.00 0.00 38 1014.7
20260502053047 51 0 0.0 3.0 0.00 0.00 0.00 37 1014.5
20260502051607 51 0 0.0 3.0 0.00 0.00 0.00 35 1014.7
20260502050047 52 0 0.0 0.0 0.00 0.00 0.00 33 1014.7
20260502044543 54 0 0.0 0.0 0.00 0.00 0.00 31 1014.6
20260502043047 55 0 0.0 3.0 0.00 0.00 0.00 30 1014.4
20260502041546 57 0 0.0 3.0 0.00 0.00 0.00 28 1014.5
20260502040050 60 0 0.0 2.0 0.00 0.00 0.00 26 1014.5
20260502034547 62 50 2.0 5.0 0.00 0.00 0.00 24 1014.4
20260502033051 63 55 3.0 9.0 0.00 0.00 0.00 23 1014.3
20260502031600 64 53 2.0 7.0 0.00 0.00 0.00 22 1014.2
20260502030042 65 49 1.0 7.0 0.00 0.00 0.00 21 1014.0
20260502024553 66 34 1.0 5.0 0.00 0.00 0.00 20 1013.8